Location: Prescott
(34.5400°N, 112.4680°W)
Time: 20:25:58
(UTC-07:00)

N. Korean satellite - Visible Passes

Search period start: 16 January 2018 00:00
Search period end: 26 January 2018 00:00
Orbit: 459 x 515 km, 97.2° (Epoch: 16 January)

Date Brightness Start Highest point End Pass type
(mag) Time Alt. Az. Time Alt. Az. Time Alt. Az.
16 Jan 9.5 06:27:22 10° NE 06:29:55 19° E 06:32:27 10° SE visible
16 Jan 6.6 18:32:19 10° S 18:35:59 86° WSW 18:39:35 10° NNW visible
17 Jan 7.0 18:08:56 10° SSE 18:12:23 41° ENE 18:15:47 10° N visible
18 Jan 9.6 19:19:37 10° SW 19:22:14 19° W 19:24:49 10° NW visible
19 Jan 8.0 06:49:13 10° NNE 06:52:30 40° E 06:55:45 10° S visible
19 Jan 8.2 18:55:06 10° SSW 18:58:30 38° W 19:01:52 10° NNW visible
20 Jan 9.6 06:26:14 10° NE 06:28:45 19° E 06:31:16 10° SE visible
20 Jan 6.6 18:31:13 10° SSE 18:34:50 88° W 18:38:25 10° NNW visible
22 Jan 9.6 19:18:28 10° SW 19:21:04 19° W 19:23:39 10° NW visible
23 Jan 8.1 06:48:02 10° NNE 06:51:18 39° E 06:54:34 10° S visible
23 Jan 8.1 18:53:57 10° S 18:57:20 39° W 19:00:41 10° NNW visible
24 Jan 9.7 06:25:04 10° NE 06:27:33 18° E 06:30:02 10° SE visible
24 Jan 6.5 18:30:04 10° SSE 18:33:39 89° ENE 18:37:11 10° N visible
